GFSCGP_250_spd_150.txt.gz
Wind_Speed
3 5 7 11 13 16 19 22 24 25 27 29 32 30 26 26 24 24 24 21 19 16 16 16 11 4 6 8 9 11 14 13 11 11 11 12 13 17 20 22 24 26 33 34
8 7 8 9 12 14 17 19 21 23 24 26 29 32 29 25 24 23 22 23 24 23 19 15 14 12 7 2 4 7 11 13 13 14 15 14 15 15 13 13 14 19 27 22
12 11 11 11 11 12 14 17 19 20 21 23 25 27 29 25 23 23 24 24 23 25 24 22 17 14 12 11 9 8 7 9 13 17 16 15 17 14 6 20 19 8 27 15
17 16 15 15 14 14 14 14 16 18 19 21 22 23 25 27 24 23 22 23 23 23 23 24 23 23 22 21 20 17 16 14 13 14 16 19 23 22 25 26 33 24 21 33
20 20 18 18 17 16 17 16 16 17 18 19 21 20 22 24 26 24 24 25 23 21 22 23 24 25 25 23 21 22 23 23 22 22 21 21 22 25 29 35 38 39 39 36
24 22 22 21 20 20 20 20 19 18 19 19 20 20 20 21 21 22 26 22 22 24 26 24 22 23 25 25 25 25 27 26 26 26 26 26 28 30 32 34 36 38 40 40
28 26 27 26 22 23 22 23 23 21 20 20 20 21 21 22 25 24 21 24 23 20 21 24 25 26 26 27 26 28 30 30 32 35 27 31 33 34 37 39 41 43 45 46
34 33 33 30 27 28 26 25 25 26 25 23 24 25 24 23 26 28 29 27 27 26 25 24 27 27 26 28 29 32 32 32 34 33 27 34 32 31 32 36 40 45 48 49
40 39 36 34 32 32 31 30 28 29 28 27 24 27 22 29 25 29 30 32 32 32 34 35 33 30 27 28 31 36 41 46 47 48 46 42 38 36 48 47 46 47 47 51
45 44 39 39 35 34 36 34 33 32 32 32 32 27 26 29 29 29 32 33 36 37 39 39 42 41 43 25 26 46 51 56 61 59 43 42 47 60 60 64 61 54 51 52
51 47 45 38 38 38 38 37 36 37 35 37 34 36 25 33 33 31 34 36 36 39 41 45 47 63 50 31 35 55 70 66 63 55 50 43 67 69 67 70 63 49 58 58
56 52 50 42 43 43 40 40 41 40 39 39 40 38 27 35 37 37 35 37 39 38 43 49 50 43 19 23 52 53 52 66 59 68 67 41 85 82 64 78 74 69 80 74
61 56 52 50 44 45 46 46 43 43 44 42 46 45 31 38 36 42 39 39 40 36 41 50 48 31 7 8 4 56 77 59 51 46 35 67 66 75 64 82 82 72 70 63
65 60 54 54 53 50 51 49 47 47 47 49 50 50 40 35 38 42 42 43 40 37 42 48 41 35 11 25 45 73 68 54 50 61 59 61 56 61 79 87 81 68 62 56
71 62 60 60 60 58 54 54 53 51 51 50 56 58 43 44 44 47 44 46 48 45 43 48 38 26 31 50 56 70 62 66 69 65 68 70 58 76 85 87 80 67 60 55
72 67 68 64 66 64 62 56 55 56 54 57 59 66 49 48 49 53 48 50 51 55 52 52 55 40 41 54 61 67 71 72 75 77 76 79 80 84 87 89 72 63 59 57
74 74 70 66 70 71 66 60 60 59 60 60 62 67 57 53 55 56 55 53 57 59 60 57 60 60 58 59 66 71 74 80 82 82 84 87 88 90 93 81 67 64 64 64
76 77 75 71 74 76 61 70 66 63 62 63 68 64 62 61 59 56 57 59 62 64 65 67 67 69 69 72 73 69 75 84 87 87 90 91 94 95 86 73 69 69 71 75
78 82 80 78 78 73 72 74 68 64 68 71 69 59 63 65 62 56 60 64 65 67 69 72 74 75 76 77 75 75 86 88 89 92 93 96 99 88 75 73 75 78 81 84
83 84 84 81 78 75 73 81 70 71 71 75 73 68 65 62 68 58 65 67 69 72 74 76 77 80 80 79 77 85 89 91 93 95 98 100 92 80 77 80 83 86 88 85
87 84 84 83 83 81 81 80 77 78 73 77 75 68 66 62 70 69 69 71 73 76 78 81 80 80 79 80 87 90 91 95 97 98 100 93 83 83 85 88 89 87 85 85
89 86 85 84 87 87 86 83 82 78 74 74 71 70 66 67 72 75 74 76 79 81 81 81 81 81 84 88 91 93 95 98 99 98 91 85 86 89 90 89 89 90 90 89
95 91 87 89 83 83 82 70 71 74 76 78 80 76 77 80 78 80 83 84 83 83 83 84 88 89 88 90 94 96 99 99 97 90 86 87 89 90 90 91 92 91 90 86
98 95 97 94 93 89 86 80 81 84 82 86 86 83 80 81 83 86 86 86 87 86 89 91 92 93 93 95 97 100 98 93 86 86 88 89 88 90 92 93 94 92 88 79
97 91 99 94 93 90 91 88 87 86 86 85 87 87 87 88 89 88 90 90 90 92 92 92 95 98 98 100 99 94 90 86 86 87 87 89 90 92 95 95 94 89 80 65
90 94 95 90 83 75 89 94 93 91 90 90 91 92 91 91 90 89 91 91 92 93 95 95 97 101 98 94 89 86 85 86 86 86 88 91 93 95 95 92 89 80 66 54

GFSCGP_250_spd_153.txt.gz
Wind_Speed
1 4 6 7 10 11 14 21 24 25 27 29 29 29 25 27 30 31 29 27 25 23 21 20 20 19 17 13 10 9 9 12 14 13 13 12 12 11 12 12 13 11 25 18
6 5 4 5 7 9 13 17 19 23 24 24 26 27 28 25 24 26 26 29 30 31 28 26 24 22 21 21 21 21 20 19 17 14 13 16 18 14 11 10 13 15 17 21
12 10 8 7 8 10 12 14 16 19 19 20 21 23 27 28 27 24 23 24 27 29 28 29 29 28 28 28 26 25 25 24 23 23 23 21 20 18 16 18 18 23 26 17
17 15 12 11 12 12 12 12 13 15 18 18 22 23 22 24 27 28 27 25 24 25 25 26 27 29 30 28 28 29 33 32 30 29 28 22 21 22 20 21 25 28 33 35
19 19 16 14 13 13 12 12 12 12 14 17 16 19 21 21 22 24 28 31 28 26 27 25 25 23 22 24 24 26 29 31 33 35 35 26 22 24 22 25 31 35 39 47
26 23 20 18 16 14 14 13 14 14 13 15 15 12 17 19 19 21 25 25 27 29 25 23 22 24 23 22 19 19 23 27 37 39 37 36 27 28 28 28 30 37 47 48
32 28 24 25 22 17 18 17 16 17 17 17 19 15 14 17 17 16 17 20 22 26 30 30 29 26 24 33 24 20 34 30 42 54 45 44 44 32 27 32 48 39 38 40
34 32 33 32 26 23 22 22 20 21 20 20 21 19 16 18 19 19 17 17 20 23 25 31 39 35 32 30 32 15 27 45 39 43 57 48 54 48 45 47 54 43 35 36
42 40 38 35 33 29 28 28 22 25 25 26 24 20 16 20 18 21 21 21 22 23 26 31 34 39 38 27 18 16 27 36 45 32 56 51 55 45 43 54 49 54 29 53
48 46 41 41 38 35 34 32 26 28 28 28 28 24 20 22 21 24 26 27 31 28 29 30 29 35 28 36 32 33 31 37 37 69 38 44 50 44 51 47 53 48 44 82
56 51 49 44 41 41 39 36 33 30 32 31 30 25 22 24 26 26 27 28 31 35 35 33 30 34 39 29 25 43 45 32 42 57 45 29 45 45 35 33 40 51 78 85
61 57 54 49 45 46 42 39 39 37 38 35 32 31 28 26 26 27 28 28 32 34 37 40 38 30 26 7 16 22 36 28 15 60 44 15 55 52 34 38 56 71 80 91
67 61 58 55 49 45 46 46 44 43 41 40 39 32 34 31 29 35 27 33 34 34 38 42 43 36 27 26 22 38 29 29 18 28 44 53 54 51 44 61 66 91 91 87
72 67 60 58 55 53 50 54 48 47 45 48 46 41 38 30 31 38 39 40 38 33 38 44 46 48 42 34 41 24 21 12 22 45 53 50 51 57 74 77 85 93 92 89
76 71 66 62 60 59 54 53 55 51 50 52 56 47 43 38 35 37 42 49 44 38 37 43 48 50 49 48 43 38 39 47 35 44 51 57 69 79 83 90 92 93 89 84
79 72 72 67 65 65 65 58 52 58 55 54 62 52 48 45 39 40 45 50 51 48 45 43 48 54 59 53 48 46 53 55 58 62 66 70 76 79 86 91 92 91 90 83
79 75 76 66 70 72 71 58 60 59 59 61 65 56 53 52 48 51 48 52 53 56 52 44 46 53 62 61 60 60 62 63 68 69 71 76 80 86 90 91 92 94 86 76
83 77 75 71 75 80 58 63 68 68 64 64 63 63 58 55 55 56 59 57 59 60 56 51 57 62 63 65 65 67 69 71 74 76 80 82 86 89 91 94 97 88 79 78
84 80 79 78 77 71 68 67 72 72 74 69 63 63 60 57 56 61 66 64 64 60 56 59 62 66 69 71 72 74 73 74 75 82 85 87 88 92 95 96 88 82 81 80
86 83 82 79 80 75 68 73 78 76 79 77 66 65 61 60 63 67 70 70 67 60 61 65 68 72 75 77 80 79 80 78 82 89 90 90 94 97 95 88 83 83 82 81
92 85 81 79 80 76 72 74 79 83 77 76 73 68 65 68 72 70 73 72 65 66 69 70 73 74 77 81 81 83 82 85 91 91 94 97 97 92 88 85 84 84 84 83
99 91 87 81 83 80 78 78 83 81 79 79 76 73 74 76 75 74 71 67 71 74 71 74 76 79 84 86 85 85 89 93 93 96 99 97 91 86 84 85 86 85 85 85
100 95 90 93 89 83 82 80 79 80 78 76 76 73 73 70 69 70 74 77 74 75 80 79 82 85 86 86 87 91 94 95 97 99 97 89 87 85 85 85 85 88 88 89
97 95 95 97 93 87 82 80 81 81 79 77 76 75 73 74 75 77 77 78 83 85 86 89 88 86 87 89 91 95 97 98 97 93 90 86 85 85 86 87 90 89 90 92
93 91 92 95 94 88 89 89 88 82 81 81 83 82 83 82 83 87 86 87 88 88 89 90 90 90 91 92 94 96 98 95 91 88 86 85 85 87 89 92 92 92 91 88
94 92 90 89 85 86 86 89 92 91 89 87 87 86 80 79 83 85 83 84 87 88 88 90 92 93 94 96 99 95 91 88 85 85 85 86 88 89 91 93 95 93 89 79

GFSCGP_250_spd_156.txt.gz
Wind_Speed
7 7 8 10 11 17 15 15 18 21 26 29 32 31 24 23 24 26 28 31 33 34 32 29 25 22 19 18 18 18 15 11 8 8 10 12 14 14 11 8 8 9 8 12
7 5 4 5 4 9 10 9 13 18 22 23 25 29 28 26 25 24 24 26 29 27 27 29 28 26 24 24 23 20 16 14 16 14 10 6 4 8 15 15 14 15 15 14
12 9 6 4 3 3 6 3 10 14 17 18 20 22 23 26 28 26 23 24 26 26 24 24 24 22 20 21 23 22 20 19 19 20 22 18 10 8 12 16 19 20 21 23
17 15 11 9 8 3 4 4 7 11 16 17 17 19 19 20 21 22 25 27 27 27 27 25 21 19 18 16 17 16 19 24 32 34 40 21 32 15 12 12 15 18 22 31
20 19 17 14 12 6 8 5 7 10 12 14 16 14 13 16 17 18 20 21 24 27 28 27 19 18 19 11 10 16 13 23 31 34 37 43 37 28 19 13 7 25 39 38
26 24 23 19 15 13 13 8 6 6 9 10 11 14 12 14 15 17 19 20 20 23 26 27 23 17 15 13 11 9 10 17 28 38 35 34 33 39 30 29 29 25 44 41
34 31 28 24 21 19 18 14 11 7 7 9 8 11 12 8 9 12 15 20 25 29 26 24 24 24 20 19 28 20 22 24 19 24 36 28 24 33 36 27 23 27 33 40
36 32 32 31 29 24 23 21 15 12 9 9 9 10 13 12 12 8 9 15 15 15 22 28 29 26 19 17 20 32 32 32 41 37 44 38 25 30 33 37 29 25 21 27
43 42 39 36 35 29 28 29 19 19 15 14 9 9 16 15 15 13 8 6 8 13 19 23 25 29 29 25 23 21 30 28 29 34 51 47 50 42 28 27 32 30 12 16
50 48 44 42 39 35 34 33 26 26 21 18 13 12 15 18 19 18 16 9 7 9 15 17 22 27 28 32 28 23 32 25 33 26 38 29 36 29 33 37 42 37 36 29
58 53 51 47 42 42 41 39 33 32 28 25 21 15 18 21 22 23 19 18 18 14 17 23 25 25 28 26 24 22 23 32 33 38 32 33 27 33 36 44 52 44 51 57
62 59 56 52 51 49 45 44 38 36 38 31 27 22 21 24 20 24 25 25 27 23 21 24 29 30 31 30 34 28 26 32 27 40 19 18 33 42 36 49 54 57 61 69
70 63 63 57 53 52 48 48 46 43 43 37 33 30 28 27 24 26 27 27 31 32 30 32 32 35 36 35 37 36 40 40 39 40 29 44 48 50 45 52 64 67 71 74
77 69 62 58 57 56 55 53 52 49 46 44 38 36 32 31 28 30 30 31 37 35 35 37 41 42 40 43 43 44 47 48 51 53 46 53 53 54 63 66 71 74 79 83
79 72 66 65 65 60 58 56 57 50 50 49 47 39 37 36 34 32 34 34 41 40 37 37 37 44 51 49 52 50 53 57 58 58 61 66 68 70 73 75 78 81 85 90
85 76 75 71 71 67 64 58 55 56 56 54 52 47 42 39 39 38 39 43 44 48 45 42 42 45 48 53 54 56 60 62 68 66 67 72 71 74 77 80 85 89 93 99
90 82 81 71 73 74 69 59 61 63 62 59 55 55 49 44 42 44 46 49 52 53 50 50 51 53 52 53 55 58 61 66 70 72 72 75 77 80 81 86 92 94 100 101
90 86 83 75 77 82 59 65 67 66 65 65 58 53 52 49 50 50 50 55 58 57 55 56 59 59 58 58 56 59 64 70 75 75 77 78 80 84 87 93 94 99 100 93
91 87 85 78 78 76 71 66 66 69 69 66 59 56 54 53 55 54 56 60 62 60 60 62 64 64 65 59 61 66 72 78 79 80 82 83 86 89 94 95 96 96 91 86
96 90 87 83 83 79 63 67 71 77 77 67 63 60 62 61 60 61 63 66 65 64 65 67 68 70 63 64 70 77 80 82 84 85 86 87 87 89 93 96 95 90 86 86
97 92 92 87 85 76 65 71 76 83 74 71 66 65 67 67 67 68 70 70 70 69 71 69 67 61 72 77 78 79 80 81 82 86 87 89 93 95 96 94 90 87 87 87
99 95 96 92 87 77 70 74 80 80 80 76 73 70 70 70 70 73 74 73 72 70 66 66 72 77 78 79 83 83 82 82 85 87 90 94 96 97 93 89 87 87 89 88
105 99 97 94 87 84 81 80 79 80 78 76 75 72 69 69 71 73 72 71 69 72 74 78 78 78 81 82 85 80 81 85 89 91 94 97 96 91 89 86 85 84 84 85
97 100 98 94 91 88 84 82 81 79 80 78 76 73 72 72 71 73 77 74 72 73 75 78 79 80 82 83 80 82 85 90 93 95 96 92 89 86 84 82 83 86 88 89
89 100 102 99 93 89 87 84 83 83 82 79 78 78 77 77 80 77 75 76 78 80 79 76 76 81 80 78 81 86 92 93 96 94 90 85 82 81 83 85 88 91 92 91
65 68 77 83 89 90 88 84 81 81 81 81 79 78 78 80 79 79 77 77 80 80 74 74 80 78 78 81 89 95 94 93 89 87 79 79 82 84 86 91 95 94 93 90

GFSCGP_250_spd_162.txt.gz
Wind_Speed
16 14 14 18 14 16 25 22 22 24 23 23 24 21 23 24 24 24 24 24 25 25 23 24 23 19 19 18 20 30 32 34 39 36 36 26 22 17 12 8 3 1 4 3
14 11 7 10 14 12 18 18 17 18 20 21 22 22 23 27 28 26 23 22 21 20 20 20 20 20 17 16 17 18 18 18 18 22 28 29 24 23 19 12 10 7 8 2
13 10 7 6 4 11 12 14 13 15 16 17 18 18 18 22 25 24 25 25 20 14 13 12 10 13 13 12 16 16 18 20 23 18 21 22 21 24 27 23 18 8 4 10
17 14 10 6 2 2 7 7 12 12 13 13 15 16 15 17 18 19 20 20 20 16 10 7 10 7 8 9 10 11 11 16 21 17 22 16 10 12 16 15 19 18 13 18
26 18 12 9 7 6 2 1 5 11 8 10 10 11 13 14 16 16 16 16 15 11 9 11 12 9 5 8 11 12 12 16 15 12 12 13 9 3 10 15 16 20 19 20
20 18 17 14 15 12 8 6 5 7 5 5 7 8 10 10 10 12 13 15 16 14 11 12 14 14 11 13 13 12 12 17 16 20 20 30 23 10 14 31 32 22 26 26
28 27 25 24 22 18 13 9 10 6 2 1 5 6 7 10 13 12 12 12 13 15 14 11 10 11 11 13 18 17 12 20 21 26 29 28 26 28 38 43 26 30 24 24
35 35 31 31 28 22 18 15 14 11 10 8 10 12 12 13 16 19 16 16 18 20 19 18 18 20 18 20 20 25 26 24 23 17 22 26 25 31 32 33 34 33 32 33
39 39 35 35 32 27 22 21 17 16 12 14 14 17 17 15 17 17 17 19 19 21 22 22 24 27 32 30 28 24 23 29 28 28 30 29 25 28 29 31 33 32 33 33
47 48 43 41 35 30 27 27 23 22 18 15 18 17 19 20 20 21 21 20 21 22 26 24 24 26 28 31 30 31 32 31 33 33 35 37 35 37 38 41 43 45 46 46
54 54 49 46 37 36 35 32 27 26 24 20 21 21 22 24 24 25 25 24 25 26 28 28 29 30 27 29 33 33 36 36 34 36 38 40 39 41 45 47 46 49 52 55
60 59 56 50 47 44 40 37 33 31 31 26 24 27 27 29 28 28 30 31 32 34 35 35 39 41 37 35 38 39 40 41 40 41 43 45 47 47 49 52 52 55 58 62
67 62 61 56 50 47 43 42 41 39 38 32 30 32 31 31 32 33 34 33 35 38 40 40 45 46 44 42 45 48 48 48 47 47 50 52 54 56 56 59 59 63 65 69
76 69 65 57 54 56 52 50 49 46 41 39 36 36 35 34 36 38 37 39 40 41 41 42 44 48 49 49 49 51 56 56 57 57 60 61 62 64 67 68 66 69 75 81
80 73 69 63 63 61 58 56 53 49 47 44 44 40 39 39 41 43 44 44 46 46 46 44 45 48 50 51 52 52 57 59 61 62 63 65 68 69 71 67 70 79 86 88
85 78 75 72 71 68 64 60 55 52 50 48 48 46 47 47 46 47 48 49 49 52 52 52 52 52 51 52 53 56 58 60 62 63 65 68 70 71 70 76 84 90 88 89
85 80 79 75 76 74 68 60 60 60 57 54 52 53 55 53 53 52 53 52 53 55 57 56 56 56 56 57 59 61 62 64 65 66 68 70 70 71 80 87 88 87 90 91
89 84 83 80 83 81 63 65 66 65 61 60 59 60 60 59 59 58 58 58 59 59 58 58 58 59 62 63 64 65 67 69 70 71 71 68 76 85 85 87 86 89 88 90
92 90 87 85 84 77 74 70 70 69 66 65 64 65 65 64 64 65 66 65 65 64 63 61 62 65 66 66 68 70 73 74 72 71 75 82 86 87 85 85 88 85 89 94
95 93 90 87 88 83 71 73 76 76 70 69 68 69 69 68 67 68 70 72 72 69 67 67 69 68 69 71 74 75 74 72 75 83 87 88 85 84 87 86 84 90 89 80
98 97 93 89 88 85 75 79 80 78 68 70 71 71 72 73 73 75 76 75 73 73 72 72 72 74 75 74 73 74 75 81 86 88 85 82 84 87 81 82 87 80 82 82
100 96 95 93 92 87 79 80 77 72 77 76 77 77 77 76 75 76 76 78 76 75 76 77 77 77 75 75 78 81 83 86 86 80 82 84 83 79 84 82 78 80 82 84
105 99 95 93 91 89 85 84 81 81 80 79 79 79 77 75 76 76 77 77 78 79 80 78 78 79 80 82 82 84 82 83 81 82 79 75 76 78 76 78 76 82 87 90
92 97 98 95 93 89 88 86 85 85 85 84 83 84 84 83 83 83 83 84 84 84 82 82 84 84 84 84 80 80 79 78 81 77 70 69 70 77 79 72 84 92 97 94
77 78 81 83 85 90 93 89 89 87 86 85 85 88 86 86 87 87 87 86 85 87 87 86 86 86 82 80 78 75 77 75 69 62 63 71 75 83 77 79 89 98 99 96
71 68 63 61 71 81 86 90 95 92 89 87 90 89 89 89 89 89 89 89 89 88 85 84 82 78 76 76 72 71 65 63 60 64 69 73 82 84 85 85 96 102 102 101

GFSCGP_250_spd_165.txt.gz
Wind_Speed
21 18 17 20 19 22 26 26 25 26 24 25 26 26 25 24 24 24 25 27 28 31 30 28 25 22 21 20 18 22 28 24 27 24 25 23 21 23 28 16 13 5 5 5
18 18 14 13 17 16 21 24 23 22 22 21 23 26 27 26 25 23 24 27 28 28 28 25 19 18 15 21 17 18 23 24 23 23 20 22 23 26 27 25 21 16 11 8
19 16 15 12 9 13 12 19 21 20 20 20 19 19 21 22 22 24 24 26 30 28 23 19 17 17 18 18 17 13 17 17 19 17 20 20 20 19 22 23 24 23 12 12
22 19 15 13 9 8 10 10 14 17 17 18 20 18 17 18 17 18 19 19 19 23 20 15 14 13 12 12 11 13 19 19 20 20 12 13 21 16 15 14 19 26 23 20
29 22 18 13 9 9 7 7 7 10 12 14 15 16 16 16 16 14 13 14 15 12 15 13 11 13 17 17 17 14 15 18 19 18 17 17 15 17 19 17 22 27 30 34
21 17 16 15 15 13 10 7 5 1 6 10 10 10 13 14 14 14 15 17 15 12 12 14 15 14 14 13 19 21 17 17 21 22 18 19 17 18 15 21 29 30 25 21
26 24 21 21 20 16 13 13 10 7 4 0 6 5 7 9 10 9 10 13 15 13 13 14 14 16 17 20 21 24 25 23 20 22 25 27 29 26 24 23 26 27 30 28
36 30 26 28 27 20 17 15 13 12 8 8 3 1 1 6 8 8 11 12 13 13 13 14 15 16 19 21 23 27 28 29 30 30 30 29 31 31 33 35 36 37 40 42
41 38 35 36 29 25 21 19 16 15 12 11 11 8 7 7 9 12 14 18 19 19 19 18 18 19 20 22 24 26 29 31 32 33 36 38 38 38 38 40 43 44 47 49
48 47 42 40 33 27 25 23 21 20 19 17 17 17 14 13 12 14 17 19 22 24 25 25 25 24 24 24 26 30 31 34 37 38 40 41 43 43 44 47 49 51 52 50
53 50 47 42 34 32 30 28 27 25 22 23 23 24 22 20 18 18 19 22 24 26 27 28 31 32 30 31 32 35 37 37 39 41 43 44 47 49 48 49 52 54 56 58
59 57 53 46 42 39 35 31 30 28 28 26 25 27 26 26 25 24 24 26 27 31 32 32 36 38 39 40 41 43 44 45 46 47 49 51 53 56 55 54 54 56 58 63
64 61 59 54 46 41 38 36 34 34 34 32 29 31 31 31 30 31 30 31 33 36 36 36 40 43 46 47 48 51 50 52 52 52 56 58 61 64 64 63 63 62 67 66
74 67 62 56 52 50 48 46 44 42 38 37 35 37 34 33 34 35 35 36 38 40 39 40 41 44 48 49 51 52 54 55 54 56 59 63 65 68 66 67 68 68 69 77
78 70 66 63 60 57 54 51 49 44 44 40 40 39 39 38 37 38 39 41 44 45 46 45 46 48 50 51 54 54 53 53 55 59 63 66 69 70 70 70 70 73 81 84
83 76 73 70 67 63 58 56 51 48 44 42 42 41 43 42 41 42 44 45 48 51 51 52 53 55 56 55 56 55 56 58 60 64 66 68 71 71 71 70 75 85 87 87
86 81 78 75 73 70 66 57 54 54 52 50 48 48 51 49 49 50 51 51 53 55 55 55 56 58 60 61 62 62 63 64 66 68 69 72 73 73 74 81 86 87 86 91
90 86 84 79 80 77 61 63 62 61 59 57 56 56 57 57 56 57 58 60 60 59 59 59 59 62 64 66 67 67 67 68 69 71 74 75 76 82 83 86 86 87 88 81
93 90 89 85 84 76 70 67 66 65 62 63 63 63 62 62 63 64 63 64 65 66 65 65 66 67 68 69 69 69 70 71 73 76 76 80 84 85 86 85 86 84 75 76
96 92 90 87 86 79 69 71 71 72 69 69 68 68 67 67 68 68 69 71 72 70 69 70 72 72 71 71 71 73 73 76 77 80 84 86 88 85 86 84 84 71 70 78
98 94 89 87 85 77 74 77 78 77 65 72 72 72 73 72 72 72 74 73 73 73 75 75 74 74 75 75 76 77 79 80 83 85 88 88 86 87 79 81 68 67 71 78
98 96 93 91 86 77 76 81 80 74 77 77 76 77 77 77 75 75 77 77 76 76 76 77 78 78 78 79 80 81 84 86 85 87 87 84 83 79 72 63 66 70 74 81
102 96 93 91 85 83 83 83 83 82 82 81 81 81 80 79 79 79 78 77 78 78 78 79 80 81 81 83 85 87 87 88 89 89 84 81 69 62 62 66 73 75 80 87
95 98 97 92 86 84 87 87 86 87 86 84 84 83 82 84 83 82 82 80 80 80 80 81 82 84 87 88 88 88 89 91 91 89 75 61 59 56 66 68 71 75 86 87
78 79 85 91 92 90 88 89 92 92 92 91 89 87 86 87 87 90 85 84 85 85 85 87 89 90 89 88 87 89 91 85 77 65 54 58 59 60 66 74 79 80 86 94
74 67 65 65 74 84 90 93 93 93 92 91 90 88 88 88 93 90 86 88 87 88 88 89 88 88 89 89 85 80 72 62 48 51 58 61 63 64 73 80 80 85 90 100

GFSCGP_250_spd_171.txt.gz
Wind_Speed
23 24 26 26 26 27 30 27 24 23 23 25 26 26 29 29 30 31 31 29 30 31 32 28 26 25 27 24 19 18 20 17 15 13 15 16 14 15 18 13 9 14 14 15
26 24 25 25 25 27 27 28 30 29 28 26 24 23 24 27 30 29 28 27 25 28 27 23 23 20 19 16 17 15 13 14 13 15 16 13 15 14 14 16 15 20 21 19
27 27 26 24 23 24 24 23 26 26 26 28 25 26 26 25 25 26 25 25 24 23 20 20 17 13 10 9 12 11 13 17 17 15 14 14 18 20 20 20 18 20 20 21
26 27 26 26 24 22 22 23 23 22 23 22 25 19 20 20 20 20 21 21 19 21 17 13 11 8 10 8 7 9 12 13 14 16 18 18 19 19 20 22 24 26 27 29
31 29 28 25 25 23 21 20 20 22 21 21 19 20 17 15 15 14 13 17 13 14 10 9 8 8 9 8 7 6 9 13 14 17 17 20 23 24 25 26 26 27 29 32
33 31 30 30 28 25 23 22 20 19 21 21 18 18 16 16 15 13 10 8 5 9 11 10 10 13 13 13 13 14 14 16 19 20 21 22 24 27 28 29 32 34 37 39
33 30 29 27 27 26 25 23 20 16 16 17 18 16 15 13 14 13 11 9 9 8 7 8 9 10 11 13 14 15 17 19 20 21 24 27 28 29 31 32 34 36 38 42
42 36 32 29 29 29 27 26 22 19 16 15 13 12 11 8 7 6 4 4 4 3 4 6 7 9 11 11 14 17 20 22 23 25 27 29 31 33 35 36 36 38 43 45
45 44 41 38 36 31 28 23 23 18 18 15 12 10 7 5 4 3 2 3 5 6 7 9 11 13 17 20 20 21 23 26 29 31 34 36 38 39 41 42 44 45 48 52
51 50 44 43 39 34 28 28 22 22 19 17 16 14 12 10 9 9 10 10 11 13 13 15 15 17 20 23 24 26 27 30 32 36 37 39 42 44 48 50 52 53 54 60
53 52 51 48 39 34 32 26 25 24 24 20 19 18 17 15 16 16 15 16 17 18 18 20 22 24 26 28 29 30 32 34 37 40 42 44 48 51 55 58 58 59 63 65
56 56 53 49 46 43 40 35 33 30 28 25 23 21 20 20 21 21 20 21 23 25 23 25 27 28 31 33 34 36 38 39 42 45 51 54 56 59 62 63 64 65 68 71
62 59 60 58 54 48 43 38 34 33 30 26 26 25 29 25 24 24 24 26 28 30 30 30 31 34 36 38 40 42 44 47 49 53 58 60 63 65 66 67 69 72 75 78
69 67 61 57 53 51 46 41 38 37 34 35 35 36 28 29 29 29 28 29 31 34 36 36 36 40 43 45 47 49 52 53 56 59 63 67 69 70 71 74 75 78 81 84
73 66 63 62 62 55 53 51 46 42 40 39 39 37 32 34 34 33 31 33 34 37 41 41 42 45 48 52 54 55 56 58 60 65 69 71 73 73 76 77 80 82 85 87
78 70 70 69 65 59 57 54 48 45 44 42 41 38 37 37 38 39 37 41 38 40 42 45 48 51 53 55 56 57 59 60 63 68 70 72 74 77 78 82 83 85 89 89
84 78 76 69 69 65 61 54 51 50 49 45 44 42 44 43 43 44 43 42 45 46 48 50 53 56 57 57 59 59 61 65 69 71 72 74 77 80 83 85 87 87 91 87
89 84 80 76 77 71 57 58 59 57 52 49 48 47 50 48 50 50 49 49 50 52 55 56 57 59 60 61 61 62 66 70 71 72 73 77 80 82 85 87 90 88 91 82
93 89 85 83 77 68 70 67 62 61 56 55 54 56 55 54 56 56 55 55 57 57 58 60 61 62 62 63 65 68 71 72 72 74 76 79 83 85 87 92 88 88 92 77
99 94 92 88 82 75 69 71 67 67 60 62 61 63 61 61 57 59 62 61 61 61 62 62 63 65 66 68 70 72 72 73 76 77 79 83 85 86 86 77 85 96 78 72
99 96 93 88 84 79 78 76 74 70 67 69 68 68 70 65 62 68 66 65 66 65 66 67 69 71 72 72 73 74 76 77 78 81 84 86 88 88 84 83 92 80 69 65
99 93 94 91 89 85 82 79 74 75 78 76 73 74 74 72 72 71 70 71 70 69 72 74 75 74 73 73 76 78 79 80 82 85 88 89 91 92 95 91 78 65 60 65
103 96 95 91 87 89 86 84 84 81 81 81 79 77 76 77 77 74 74 74 74 76 77 77 76 76 76 77 79 80 81 84 87 89 90 93 95 94 80 72 60 59 63 65
102 99 99 94 91 91 90 89 92 90 91 85 84 84 82 80 79 78 79 78 78 78 79 78 77 76 78 79 81 83 86 87 89 91 94 93 86 72 63 58 59 60 62 67
102 100 98 96 95 94 91 93 94 93 92 90 88 87 87 85 83 82 82 83 83 83 81 80 79 78 81 84 87 87 88 91 91 90 85 74 66 57 57 57 56 59 62 64
95 100 101 99 97 97 94 95 95 94 94 93 91 90 88 86 84 83 83 84 83 83 83 84 84 83 84 86 87 91 87 80 77 73 65 54 53 54 57 57 58 57 60 66

GFSCGP_250_spd_177.txt.gz
Wind_Speed
26 27 30 40 35 25 15 6 0 12 20 15 18 17 18 19 23 25 25 26 25 24 24 23 21 19 21 20 15 14 14 15 17 14 15 15 14 16 20 22 22 22 23 23
26 26 33 32 25 25 25 25 15 21 15 22 25 25 24 24 27 31 32 30 30 27 24 21 19 16 13 9 8 9 14 13 13 15 16 17 17 18 19 19 21 23 25 26
30 29 29 25 28 32 25 28 22 17 23 26 32 30 30 32 35 33 32 30 26 23 18 14 12 8 8 8 7 12 16 14 15 14 15 17 19 19 20 22 24 24 26 30
30 28 27 26 21 22 30 31 27 25 25 30 32 31 32 27 30 30 24 21 20 18 14 12 10 8 6 7 7 10 12 13 15 17 19 22 22 22 21 22 23 25 30 35
30 29 27 28 24 24 27 30 33 27 29 31 30 30 31 29 27 25 22 23 21 19 16 11 10 11 12 12 12 11 11 13 16 19 21 22 22 23 24 27 31 34 35 34
31 30 29 28 27 25 28 29 28 31 32 31 27 28 28 28 26 23 19 19 17 18 18 15 12 9 9 9 10 12 14 15 17 19 22 24 27 29 30 31 34 35 34 40
28 30 31 31 28 26 27 26 27 28 29 30 28 24 23 22 24 22 18 18 18 17 14 11 8 7 8 10 12 13 16 19 20 22 26 28 31 32 34 38 41 41 41 43
38 32 31 31 33 33 31 24 24 26 27 26 26 24 24 22 20 20 20 19 14 11 9 8 7 6 7 10 13 17 18 21 24 27 31 34 37 39 41 44 47 50 52 53
38 40 40 36 36 34 30 32 27 26 24 25 25 25 23 23 22 19 14 13 13 9 5 3 3 6 9 13 16 19 21 24 27 31 35 40 43 46 47 49 53 57 60 62
50 46 42 42 40 37 33 33 32 28 24 22 22 23 24 22 19 18 17 12 8 6 4 2 6 10 14 17 19 21 23 26 30 34 39 43 47 50 53 56 59 62 65 68
55 51 48 47 41 40 38 36 33 31 30 28 27 25 25 24 22 18 15 13 12 9 6 7 10 13 17 21 24 24 26 30 34 37 41 46 50 54 58 61 63 64 70 73
56 54 51 46 48 46 44 41 38 34 32 33 30 28 24 19 18 18 16 14 12 10 10 11 12 15 19 23 26 29 31 34 38 42 46 50 53 58 62 65 67 69 74 78
63 58 58 57 54 49 43 41 40 40 41 36 31 28 24 23 18 20 19 16 15 14 14 15 17 19 22 26 30 32 36 39 43 46 49 52 56 61 66 69 70 73 77 80
74 69 60 56 51 51 51 47 45 43 39 37 34 33 28 27 21 21 23 22 19 19 17 21 22 25 25 29 33 36 38 42 46 50 53 55 59 64 69 71 73 77 81 81
78 68 64 61 61 59 55 53 51 46 43 39 39 34 32 28 28 30 26 26 25 25 24 24 26 28 30 31 35 39 42 45 49 53 56 58 63 68 72 74 76 81 81 84
79 70 70 66 64 66 62 58 54 50 49 45 43 39 39 34 33 30 26 27 31 31 30 31 30 31 34 37 40 43 46 49 53 56 58 62 65 71 74 77 79 82 83 86
81 75 74 69 67 65 66 60 56 54 52 48 46 42 44 41 35 30 30 30 34 34 36 37 37 38 39 42 45 47 50 52 56 59 61 65 69 73 77 80 83 82 85 84
82 80 76 71 73 72 57 60 58 55 54 52 51 50 50 45 39 34 31 32 35 37 40 40 42 44 45 47 50 52 54 58 59 63 65 69 74 76 80 83 83 83 84 75
84 81 77 76 76 61 63 61 62 60 57 54 54 54 53 51 45 40 37 36 41 42 39 44 45 47 49 51 55 57 59 61 64 66 69 74 76 80 83 85 83 87 78 70
88 85 80 78 76 66 61 63 65 68 63 61 59 58 56 56 55 49 43 41 46 49 40 48 51 49 52 55 59 61 62 66 68 69 73 77 81 83 85 85 88 80 71 68
95 91 86 80 75 72 69 72 74 68 64 64 61 62 62 61 61 59 53 54 48 43 50 52 54 55 56 59 61 63 66 68 69 72 77 81 83 85 85 87 84 69 69 57
101 97 91 86 79 73 72 82 75 68 69 68 65 62 62 64 65 65 58 56 53 52 56 57 56 59 60 62 64 66 67 69 71 77 80 83 84 85 85 86 71 68 59 55
108 103 96 91 80 79 80 80 80 78 72 69 68 65 63 65 69 69 62 58 57 57 61 61 62 63 64 66 66 67 69 72 77 80 84 85 85 85 86 72 66 60 53 54
108 103 98 92 91 88 89 85 83 81 73 71 72 71 70 70 74 70 65 64 64 66 63 64 66 68 68 68 69 71 73 76 80 83 85 86 85 81 72 67 60 52 49 53
105 101 98 95 95 95 90 89 88 85 80 78 73 72 71 75 75 72 68 68 69 70 69 70 71 71 70 70 72 74 75 80 81 85 86 85 80 69 65 61 55 52 49 56
101 103 102 95 97 97 94 93 93 90 84 82 78 73 76 79 74 72 70 71 73 72 71 73 74 74 74 75 75 78 79 80 85 85 84 75 65 62 59 57 55 52 55 58

GFSCGP_250_spd_180.txt.gz
Wind_Speed
22 24 30 28 28 22 25 17 19 14 17 15 10 12 13 13 13 14 20 25 27 29 26 26 24 24 23 18 15 13 13 15 16 19 18 17 16 16 16 18 21 23 25 25
25 28 29 29 28 26 20 25 15 12 11 14 15 12 19 19 22 32 36 37 34 30 29 25 26 22 17 16 15 14 18 18 18 16 16 15 16 18 20 22 24 26 27 27
29 31 27 32 33 30 20 22 18 15 15 17 20 21 28 31 31 35 36 32 31 26 22 19 18 15 14 11 15 17 14 15 15 16 18 19 19 19 21 25 28 30 29 30
25 27 26 24 32 28 23 17 16 16 19 21 25 32 36 41 35 31 29 29 28 22 22 19 13 11 12 12 14 12 11 12 13 15 18 20 23 25 26 28 30 31 30 32
29 28 26 34 30 26 28 27 28 22 27 31 33 36 37 39 35 30 24 26 23 22 21 20 18 18 17 13 12 11 12 14 15 16 22 23 24 25 27 31 34 33 36 41
33 34 30 29 28 24 25 26 28 32 31 35 32 32 33 33 29 30 22 25 24 24 26 21 16 15 13 11 12 12 13 15 18 21 23 25 28 32 35 38 42 45 48 51
35 31 35 30 27 28 25 26 30 34 34 37 39 35 33 33 30 28 25 23 26 23 22 18 14 12 11 11 12 13 13 16 20 23 26 30 35 38 42 45 48 52 55 56
41 36 33 29 27 32 28 31 35 42 41 37 39 40 36 33 31 31 29 24 20 18 15 15 12 10 8 7 9 11 12 16 21 26 31 36 39 43 47 50 52 55 59 61
39 42 42 40 42 36 34 33 32 35 33 33 34 38 34 31 29 30 29 27 23 18 14 11 7 4 4 5 9 12 15 20 25 31 35 39 42 45 49 53 56 59 63 65
49 48 43 46 46 42 37 39 35 36 37 35 33 31 31 31 29 26 24 22 19 19 14 10 6 1 3 6 10 13 18 23 27 32 36 41 44 47 51 56 59 63 65 68
54 52 50 50 44 42 43 38 39 38 37 33 32 31 31 28 25 23 22 20 18 15 12 10 6 4 7 9 13 17 20 25 30 35 39 43 47 50 54 59 63 66 70 73
56 55 51 44 47 47 46 45 41 38 38 38 36 32 30 26 24 21 21 19 17 14 10 10 7 7 11 13 15 18 22 28 33 37 42 45 49 52 57 62 65 69 73 76
63 57 55 55 56 50 47 46 46 44 40 37 37 33 31 27 23 23 20 17 15 14 15 14 12 11 14 16 19 22 26 31 36 41 45 48 52 55 60 65 68 72 76 79
69 66 58 51 46 48 49 46 45 44 41 40 40 37 35 33 32 26 22 20 17 16 16 18 18 16 17 20 23 27 30 34 39 43 47 51 55 58 62 66 69 74 76 80
73 66 63 59 59 58 56 55 49 45 46 41 42 39 36 32 31 32 27 22 21 19 20 23 23 22 22 25 28 31 36 38 42 46 51 54 58 60 65 68 70 74 77 81
74 67 67 66 66 62 59 55 52 52 51 48 46 41 40 39 38 34 30 29 26 24 25 26 26 25 26 28 32 36 40 42 46 50 53 57 60 63 66 69 73 76 80 81
78 75 71 67 68 67 63 53 52 53 52 51 47 45 42 41 38 35 32 31 29 28 28 29 25 25 27 30 34 39 42 46 50 53 57 60 62 65 68 71 76 78 82 84
80 77 75 72 75 70 55 60 57 55 56 53 52 50 45 44 39 37 35 32 33 30 30 33 26 29 30 34 38 41 45 49 52 55 60 62 65 68 70 74 76 82 84 85
84 82 80 78 73 60 66 64 62 56 55 54 55 53 49 47 43 38 32 29 28 35 36 40 36 33 35 39 42 45 49 52 54 58 61 63 68 71 72 77 79 82 85 77
90 88 84 83 78 65 63 63 65 63 61 59 59 57 54 52 46 42 39 35 32 36 41 47 45 41 43 44 47 49 53 55 57 61 63 67 71 73 75 78 82 83 82 72
96 94 89 85 78 71 70 72 70 66 61 62 61 62 60 55 49 48 44 40 40 41 45 46 53 51 49 50 51 54 57 58 61 63 66 71 73 75 78 80 81 83 71 66
101 97 91 85 83 77 77 78 70 66 68 65 65 66 62 57 52 51 50 48 48 49 49 49 52 56 56 55 57 58 59 62 64 66 70 75 75 78 78 82 83 76 64 58
104 101 95 89 79 79 80 84 76 73 72 69 68 68 66 60 55 53 52 51 51 49 49 52 55 58 57 58 60 62 62 64 65 69 73 75 78 78 80 79 77 64 57 57
106 103 102 96 93 88 86 87 85 82 77 72 69 71 69 67 60 56 55 55 57 55 54 57 58 59 61 61 60 61 64 64 67 71 76 79 79 80 80 75 62 60 56 58
109 106 104 101 96 89 87 91 86 86 81 78 74 71 70 66 65 63 63 64 61 59 59 63 62 62 61 62 63 63 67 68 71 76 79 80 80 80 75 64 59 56 56 58
112 109 104 100 97 93 91 92 88 86 82 77 74 70 68 66 65 68 70 68 65 63 64 65 63 64 66 68 67 67 70 73 76 78 79 81 80 73 63 57 56 55 58 59